Location: Pedholt
(56.0260°N, 10.2097°E)
Time: 02:12:45
(UTC+00:00)

SR - Pass Details

Date: 05 August 2021
Orbit: 581 x 874 km, 66.7° (Epoch: 21 September)

Event Time Altitude Azimuth Distance (km) Brightness Sun altitude
Rises 14:08:57 0° 309° (NW) 3,107 ? 40.1°
Reaches altitude 10° 14:12:22 10° 286° (WNW) 2,116 ? 39.7°
Maximum altitude 14:14:51 14° 254° (WSW) 1,793 ? 39.4°
Drops below altitude 10° 14:17:16 10° 221° (SW) 2,020 ? 39.1°
Sets 14:20:24 0° 197° (SSW) 2,872 ? 38.7°
